Location: Montague
(41.3030°N, 74.7940°W)
Time: 20:46:11
(UTC-04:00)

Daily predictions for brighter satellites

Satellite Brightness Start Highest point End
(mag) Time Altitude Azimuth Time Altitude Azimuth Time Altitude Azimuth
Cosmos 1048 Rocket 4.5 18:30:34 10° SSE 18:35:15 38° ESE 18:39:58 10° NE
ERS-2 2.1 18:34:09 10° SSE 18:37:49 73° ENE 18:41:32 10° N
SL-24 R/B - RUBIN 2 3.9 18:34:48 10° NW 18:39:38 73° WSW 18:44:01 10° SSE
YAOGAN 1 2.6 18:35:47 10° SSE 18:40:03 62° ENE 18:44:21 10° N
Cosmos 1420 Rocket 4.1 18:36:17 10° NNW 18:41:34 61° ENE 18:46:46 10° SSE
Cosmos 1726 3.3 18:41:52 10° SE 18:44:46 22° E 18:47:40 10° NE
GRACE-2 4.3 18:42:32 10° SSE 18:44:54 34° E 18:47:16 10° NNE
CZ-4 R/B 1.6 18:40:51 10° S 18:45:02 79° WSW 18:49:12 10° NNW
Cosmos 2322 3.8 18:39:31 10° NNW 18:45:17 88° ENE 18:50:59 10° SSE
DELTA 2 R/B (1) 4.3 18:40:00 10° W 18:45:23 52° SSW 18:50:47 10° SE
EO 1 Del DPAF 3.3 18:44:17 10° NNE 18:48:06 58° E 18:51:52 10° S
CZ-2C R/B 3.8 18:44:32 10° N 18:49:03 78° WNW 18:53:28 10° SSW
IRS-1A Rocket 4.5 18:43:21 10° SSE 18:49:14 87° WSW 18:55:11 10° NNW
GRACE-1 3.9 18:48:03 10° SSE 18:50:32 45° E 18:53:02 10° NNE
Cosmos 2219 Rocket 2.8 18:46:33 10° N 18:51:41 35° ENE 18:56:48 10° ESE
Landsat 4 4.1 18:48:14 10° N 18:51:57 66° WNW 18:55:37 10° SSW
Cosmos 1821 Rocket 4.4 18:46:50 10° SSE 18:52:30 40° E 18:58:17 10° NNE
METEOR-M 4.1 18:51:09 10° SSE 18:56:26 68° ENE 19:01:45 10° N
CZ-4 R/B 4.4 18:52:26 10° SSE 18:56:35 86° ENE 19:00:45 10° NNW
BREEZE-M DEB (TANK) 2.7 18:55:05 10° W 18:57:19 36° NNW 18:58:55 13° NE
Cosmos 2221 2.5 18:56:41 10° S 19:00:57 65° E 19:05:17 10° NNE
Delta 2 Rocket 4.5 18:57:51 10° WSW 19:01:27 32° S 19:04:38 10° SE
Cosmos 2084 4.1 18:58:38 10° NNW 19:01:57 28° NE 19:04:15 16° E
Meteor 1-28 Rocket 4.0 18:58:20 10° N 19:02:03 55° WNW 19:05:42 10° SSW
ALOS 2.6 18:57:46 10° SE 19:02:10 44° ENE 19:06:37 10° N
Thor Agena Rocket 4.3 18:58:43 10° NE 19:03:03 28° E 19:07:20 10° SSE
Cosmos 1315 Rocket 3.0 19:00:41 10° NNW 19:04:47 80° W 19:08:54 10° S
Cosmos 921 Rocket 3.5 19:01:23 10° NNW 19:05:47 65° WSW 19:10:04 10° S
SKYMED 2 3.5 19:02:36 10° NNE 19:06:58 80° ESE 19:11:18 10° S
GP-B 4.0 19:05:52 10° N 19:10:12 54° W 19:14:31 10° SSW
Cosmos 2333 4.2 19:15:29 10° NNW 19:21:15 89° WSW 19:27:00 10° SSE
BREEZE-M R/B 3.1 19:20:32 10° SSW 19:22:52 30° SE 19:23:15 28° ESE
Cosmos 2123 Rocket 4.2 19:17:15 10° N 19:23:15 46° ENE 19:29:14 10° SSE
Cosmos 1908 4.2 19:20:23 10° SSW 19:24:10 49° W 19:27:58 10° N
SJ-6B 3.8 19:25:54 24° NE 19:25:54 24° NE 19:28:27 10° NNE
Cosmos 1605 Rocket 4.3 19:21:29 10° SSE 19:27:01 38° E 19:32:34 10° NNE
Cosmos 2237 Rocket 2.7 19:23:39 10° N 19:28:58 38° ENE 19:31:45 24° ESE
Cosmos 1269 Rocket 4.1 19:25:03 10° SSW 19:30:19 79° WNW 19:35:39 10° NNE
Cosmos 44 3.9 19:26:21 10° SW 19:30:34 48° NW 19:34:47 10° NNE
DMSP B5D1-3 4.4 19:25:46 10° NNE 19:30:55 82° ESE 19:36:05 10° SSW
H-2A R/B 3.1 19:32:05 26° SE 19:33:49 43° ENE 19:37:34 10° N
Aureole 2 Rocket 2.7 19:30:52 10° NNW 19:34:50 89° W 19:38:55 10° SSE
Cosmos 2227 Rocket 2.6 19:30:51 10° S 19:36:03 39° ESE 19:39:16 21° NE
NOSS 0 Rocket 3.9 19:33:37 10° NNW 19:39:46 65° ENE 19:44:52 15° SE
SL-16 R/B 3.5 19:37:06 10° N 19:41:21 22° NE 19:41:21 22° NE
Atlas Centaur 2 4.3 19:40:42 10° SSW 19:41:58 11° SSW 19:43:20 10° S
SPOT 3 Rocket 4.3 19:37:11 10° S 19:42:15 55° W 19:47:24 10° NNW
Iridium 4 Rocket 4.1 19:36:59 10° S 19:42:36 71° W 19:48:31 10° N
Gbstr 26 Del rocket 3.7 19:37:57 10° WNW 19:43:01 77° SW 19:47:06 22° SE
Abrixas rocket 3.4 19:40:39 10° NW 19:43:32 29° NNE 19:43:32 29° NNE
Cosmos 1300 2.6 19:44:23 10° S 19:48:12 87° W 19:52:04 10° N
Cosmos 494 Rocket 3.9 19:43:47 10° S 19:48:48 61° ESE 19:52:55 15° NNE
BREEZE M DEB (TANK) 4.5 19:30:47 10° WNW 19:49:54 62° NNE 19:52:21 35° E
Sich 1 3.0 19:46:09 10° N 19:50:34 88° W 19:54:58 10° S
Cosmos 1980 3.6 19:47:54 10° NNW 19:53:32 64° ENE 19:55:59 33° SE
COSMO-SKYMED 1 4.5 19:51:03 10° N 19:54:52 31° WNW 19:58:40 10° SW
Resurs 01 Rocket 3.5 19:57:31 17° NNE 19:57:31 17° NNE 19:58:49 10° N
CZ-4C R/B 2.9 19:51:58 10° SW 19:57:04 51° NW 20:02:54 10° NNE
Cosmos 1110 Rocket 3.9 19:52:27 10° NNW 19:57:47 85° ENE 20:01:18 22° SSE
Cosmos 2098 Rocket 4.4 19:53:33 10° SSW 19:58:09 51° WNW 20:04:02 10° N
FREGAT/IRIS 4.3 20:00:58 27° NNW 20:00:58 27° NNW 20:02:29 10° NNW
Meteor 2-3 Rocket 4.0 19:54:57 10° N 20:00:27 44° ENE 20:00:30 44° ENE
FENGYUN 3A 4.4 19:55:37 10° S 20:00:54 54° W 20:06:13 10° NNW
COSMOS 2428 4.1 19:57:55 10° NW 20:03:07 38° WSW 20:08:19 10° S
USA 32 4.0 19:59:18 10° N 20:04:28 56° E 20:04:44 56° E
Cosmos 2333 Rocket 2.4 20:00:27 10° NNW 20:06:12 72° WSW 20:11:07 14° SSE
Cosmos 2219 4.3 20:01:32 10° SW 20:07:00 43° WNW 20:12:28 10° NNE
Meteor 2-10 4.4 20:05:16 10° SSW 20:10:15 62° WNW 20:15:22 10° N
Hubble Space Telescope 3.3 20:09:13 10° SSW 20:10:06 12° S 20:10:06 12° S
Cosmos 2297 Rocket 2.0 20:07:36 10° SSW 20:13:11 67° ESE 20:14:04 58° ENE
Cosmos 1328 Rocket 3.6 20:15:34 10° SSW 20:25:10 - N 20:19:44 73° WSW
Cosmos 1633 Rocket 3.9 20:16:24 10° NNW 20:20:42 51° W 20:24:47 11° SSW
Envisat 4.1 20:24:49 31° NNE 20:24:49 31° NNE 20:27:35 10° N
Cosmos 2082 3.5 20:17:55 10° SSW 20:23:38 80° ESE 20:24:19 69° NE
Cosmos 2251 Rocket 3.4 20:19:06 10° SSW 20:24:23 88° WNW 20:25:27 59° NNE
Cosmos 2219 Rocket 3.7 20:30:36 10° NW 20:35:33 33° WSW 20:40:30 10° SSW
USA 267 3.7 20:48:34 48° S 20:48:34 48° S 20:53:23 10° SSW
BREEZE-M DEB (TANK) 3.9 20:54:10 10° WNW 21:04:20 58° W 21:04:20 58° W
Cosmos 2237 Rocket 3.7 21:07:57 10° NW 21:12:53 31° WSW 21:13:39 30° WSW
Cosmos 2227 Rocket 3.8 21:15:12 10° WSW 21:20:10 31° NW 21:21:12 29° NW
USA 234 4.4 21:23:45 34° N 21:23:45 34° N 21:27:55 10° NW
SL-16 R/B 3.8 21:20:26 10° NNW 21:23:14 29° NW 21:23:14 29° NW
